Location: Seattle
(47.6064°N, 122.3308°W)
Time: 00:43:45
(UTC-08:00)

A-11 Canister half - Pass Details

Date: 29 November 2020
Orbit: 1524 x 1684 km, 47.3° (Epoch: 21 January)

Event Time Altitude Azimuth Distance (km) Brightness Sun altitude
Rises 10:51:12 0° 287° (WNW) 4,907 11.3 19.1°
Reaches altitude 10° 10:54:25 10° 285° (WNW) 3,901 10.9 19.3°
Maximum altitude 11:04:13 66° 206° (SSW) 1,733 10.0 19.7°
Drops below altitude 10° 11:13:41 10° 127° (SE) 3,767 11.9 20.0°
Sets 11:16:43 0° 124° (SE) 4,730 12.2 20.1°
